Voltar ao catálogo

STARLINK-33976

AtivoComunicaçõesVLEO
NORAD 63858·PAYLOAD·🇺🇸 United States

Lançado May 7, 2025 de Cape Canaveral Space Force Station

Loading…

Próximas Passagens (próximas 24 horas)

TLE

AtualizadoSource: CelesTrak SupGP

Época: Sep 15, 2026, 02:23 UTC

1 63858C 25093Y   26258.09979167  .00009570  00000+0  34660-3 0  2580
2 63858  43.0033  88.1717 0001688 273.0548 318.7333 15.27574221    14

Acompanhe STARLINK-33976 em tempo real com AllMySat

Download on the App Store